Regional Weather Roundup
Issued by NWS

Home | Current Version | Previous Version | Text Only | Print | Product List | Glossary On
Versions: 1 2 3 4 5 6 7 8 9 10 11 12 13 14 15 16 17 18 19 20 21 22 23 24 25 26 27 28 29 30 31 32 33 34 35 36 37 38 39 40 41 42 43 44 45 46 47 48 49 50
000
ASUS43 KMKX 022321
RWRWI

WISCONSIN REGIONAL WEATHER ROUNDUP
NATIONAL WEATHER SERVICE MILWAUKEE/SULLIVAN WI
600 PM CDT THU JUL 02 2020

NOTE: "FAIR" INDICATES FEW OR NO CLOUDS BELOW 12,000 FEET WITH NO
SIGNIFICANT WEATHER AND/OR OBSTRUCTIONS TO VISIBILITY.

WIZ001-002-006>008-014>016-023>028-030000-
NORTHWEST WISCONSIN

CITY           SKY/WX    TMP DP  RH WIND       PRES   REMARKS
SUPERIOR ARPT  MOSUNNY   91  70  50 E5        30.02F HX  95
ASHLAND        PTSUNNY   86  71  60 E5        30.05F HX  91
HAYWARD        MOSUNNY   84  70  62 NE5       30.08S HX  88
SIREN          NOT AVBL
CUMBERLAND     SUNNY     86  61  42 CALM      30.08F HX  86
RICE LAKE      SUNNY     87  65  47 S3        30.09S HX  89
CHETEK         SUNNY     88  65  47 CALM      30.07F HX  90
LADYSMITH      MOSUNNY   87  67  50 SW3       30.09F HX  90
EAU CLAIRE     SUNNY     90  63  40 NE6       30.05F HX  91
MENOMONIE      SUNNY     84  60  43 CALM      30.06S HX  83
NEW RICHMOND   SUNNY     86  63  44 CALM      30.07S HX  87
OSCEOLA        SUNNY     89  64  43 S7        30.09S HX  90
$$

WIZ003>005-009-010-017-018-030000-
NORTH CENTRAL WISCONSIN

CITY           SKY/WX    TMP DP  RH WIND       PRES   REMARKS
MANITOWISH WTR PTSUNNY   83  70  63 N5        30.10S HX  87
ARBOR VITAE    PTSUNNY   79  71  76 CALM      30.10F HX  83
WOODRUFF       PTSUNNY   79  71  76 CALM      30.10F HX  83
RHINELANDER    PTSUNNY   86  67  52 VRB6      30.10F HX  89
EAGLE RIVER    PTSUNNY   83  65  53 N6        30.10S HX  85
LAND O LAKES   PTSUNNY   82  67  58 N5        30.12S HX  85
PHILLIPS       MOSUNNY   79  75  86 CALM      30.09F HX  83
TOMAHAWK       PTSUNNY   79  65  63 NW5       30.10R HX  81
MEDFORD        SUNNY     84  66  53 W6        30.09S HX  86
MERRILL        MOSUNNY   87  69  54 W6        30.08R HX  91
$$

WIZ029-030-035-036-043>047-030000-
CENTRAL WISCONSIN

CITY           SKY/WX    TMP DP  RH WIND       PRES   REMARKS
WAUSAU         MOSUNNY   87  66  49 W6        30.05F HX  89
MOSINEE        MOSUNNY   84  64  51 W7        30.08F HX  86
MARSHFIELD     SUNNY     86  65  49 CALM      30.07F HX  88
STEVENS POINT  SUNNY     85  63  48 CALM      30.07S HX  85
WAUPACA        MOSUNNY   91  57  31 CALM      30.06R HX  89
WAUTOMA        SUNNY     87  60  40 NW5       30.05S HX  87
WISC RAPIDS    SUNNY     88  58  36 SE3       30.06F HX  87
CAMP DOUGLAS   SUNNY     87  68  53 CALM      30.06S HX  90
$$

WIZ011>013-019>022-031-037>040-048>050-030000-
NORTHEAST WISCONSIN

CITY           SKY/WX    TMP DP  RH WIND       PRES   REMARKS
ANTIGO         PTSUNNY   84  69  60 E7        30.09S HX  88
SHAWANO        MOSUNNY   89  67  48 W5        30.04S HX  92
OCONTO         PTSUNNY   80  67  65 CALM      30.03S HX  83
STURGEON BAY   MOSUNNY   82  70  66 N5        30.05R HX  86
GREEN BAY      PTSUNNY   88  65  46 SW6       30.03F HX  90
MANITOWOC      PTSUNNY   86  66  51 W6        30.04S HX  88
APPLETON       PTSUNNY   84  50  30 W3        30.04F HX  82
CLINTONVILLE   MOSUNNY   88  63  42 W5        30.05R HX  88
OSHKOSH        PTSUNNY   86  64  47 E5        30.04F HX  87
$$

WIZ032>034-041-042-053>061-030000-
SOUTHWEST WISCONSIN

CITY           SKY/WX    TMP DP  RH WIND       PRES   REMARKS
LA CROSSE      SUNNY     90  61  37 NW7       30.04F HX  90
SPARTA         SUNNY     87  56  34 CALM      30.06F HX  85
VIROQUA        SUNNY     85  65  51 N3        30.07F HX  87
BOSCOBEL       SUNNY     90  66  45 CALM      30.03F HX  92
PRAIRIE DU CHI SUNNY     85  63  47 N5        30.02F HX  86
PLATTEVILLE    MOSUNNY   86  66  51 E5        30.05F HX  88
$$

WIZ056-057-062-063-064-067-068-030000-
SOUTH CENTRAL WISCONSIN

CITY           SKY/WX    TMP DP  RH WIND       PRES   REMARKS
REEDSBURG      CLOUDY    85  65  51 CALM      30.05S HX  86
BARABOO/DELLS  SUNNY     85  60  41 CALM      30.06S HX  85
LONE ROCK      SUNNY     88  67  49 CALM      30.03F HX  91
MINERAL POINT  MOSUNNY   86  61  42 CALM      30.06F HX  86
MADISON        PTSUNNY   88  65  46 NE5       30.04F HX  90
MIDDLETON      MOSUNNY   87  60  39 CALM      30.05F HX  87
WATERTOWN      PTSUNNY   86  64  47 CALM      30.04F HX  87
MONROE         MOSUNNY   84  65  52 NE5       30.05S HX  85
JANESVILLE     PTSUNNY   88  61  40 VRB5      30.04F HX  88
$$

WIZ051-052-058>065-066-070>072-030000-
SOUTHEAST WISCONSIN

CITY           SKY/WX    TMP DP  RH WIND       PRES   REMARKS
MILWAUKEE      PTSUNNY   83  60  45 E6        30.04F HX  83
WAUKESHA       SUNNY     82  61  47 E6        30.06F HX  83
MILWAUKEE/TIMM SUNNY     84  54  34 SE5       30.04F HX  83
RACINE         MOSUNNY   83  64  52 E5        30.06F HX  84
KENOSHA        PTSUNNY   81  66  60 E6        30.05F HX  83
FOND DU LAC    PTSUNNY   88  64  44 CALM      30.05S HX  89
SHEBOYGAN      PTSUNNY   88  63  43 NW5       30.04S HX  89
WEST BEND      PTSUNNY   82  61  47 N3        30.05S HX  83
JUNEAU         PTSUNNY   85  64  49 CALM      30.06S HX  86
$$

LSZ147-162-030000-
LAKE SUPERIOR

STATION/POSITION TIME  TEMP    WIND        PRES    WAVE
                       AIR SEA DIR/SP/G            HT/PER
                 (UTC) (F)     (DEG/KT/KT) (MB)    (FT/S)
DEVILS ISLAND    2300   85     120/  4/  5 1017.1F
PORT WING        2240   90     330/  2/  2 1016.9S
SAXON HARBOR     2240   80     190/  3/  4 1017.3F
$$

LMZ867-665-643>646-030000-
LAKE MICHIGAN

STATION/POSITION TIME  TEMP    WIND        PRES    WAVE
                       AIR SEA DIR/SP/G            HT/PER
                 (UTC) (F)     (DEG/KT/KT) (MB)    (FT/S)
NORTHPORT PIER   2240   78     260/  3/  9 1016.3F
KEWAUNEE LAKESHO 2236   76     170/  2/  5 1016.5F
SHEBOYGAN LAKESH 2300   80     180/  7/  7   N/A
PORT WASHINGTON  2230   81     180/  5/  6 1018.3S
ATWATER BUOY     2300   75 71  180/  4/  6 1017.5    0
MILWAUKEE LAKESH 2300   77     120/  7/  7   N/A
KENOSHA   LAKESH 2300   74      20/  3/  3 1016.9
$$

TC  - TEMPERATURE IN CELSIUS
VSB - VISIBILITY IN STATUTE MILES
WCI - WIND CHILL INDEX
HX  - HEAT INDEX





USA.gov is the U.S. government's official web portal to all federal, state and local government web resources and services.